| time (UTC) | temp F | wind direction | speed MPH | gust MPH | rain 1hr in | rain 24hr in | rain mn in | humidity % | barometer mb |
| 20260906085253 | 70 | 27 | 2.0 | 3.0 | 0.00 | 0.00 | 0.00 | 94 | 1017.8 |
| 20260906084748 | 70 | 353 | 0.0 | 3.0 | 0.00 | 0.00 | 0.00 | 94 | 1017.6 |
| 20260906084242 | 71 | 20 | 2.0 | 2.0 | 0.00 | 0.00 | 0.00 | 94 | 1017.6 |
| 20260906083737 | 71 | 43 | 0.0 | 3.0 | 0.00 | 0.00 | 0.00 | 93 | 1017.7 |
| 20260906083233 | 71 | 99 | 0.0 | 3.0 | 0.00 | 0.00 | 0.00 | 93 | 1017.8 |
| 20260906082728 | 71 | 29 | 1.0 | 3.0 | 0.00 | 0.00 | 0.00 | 93 | 1017.8 |
| 20260906082223 | 71 | 61 | 1.0 | 3.0 | 0.00 | 0.00 | 0.00 | 93 | 1017.7 |
| 20260906081719 | 72 | 63 | 3.0 | 4.0 | 0.00 | 0.00 | 0.00 | 92 | 1017.9 |
| 20260906081219 | 72 | 64 | 1.0 | 4.0 | 0.00 | 0.00 | 0.00 | 92 | 1018.0 |
| 20260906080715 | 72 | 33 | 3.0 | 5.0 | 0.00 | 0.00 | 0.00 | 92 | 1018.0 |
| 20260906080211 | 72 | 46 | 3.0 | 4.0 | 0.00 | 0.00 | 0.00 | 92 | 1018.1 |
| 20260906075706 | 72 | 77 | 3.0 | 4.0 | 0.00 | 0.00 | 0.00 | 92 | 1018.0 |
| 20260906075201 | 72 | 76 | 1.0 | 4.0 | 0.00 | 0.00 | 0.00 | 92 | 1018.2 |
| 20260906074656 | 72 | 64 | 2.0 | 5.0 | 0.00 | 0.00 | 0.00 | 92 | 1018.1 |
| 20260906074155 | 72 | 44 | 1.0 | 4.0 | 0.00 | 0.00 | 0.00 | 92 | 1018.3 |
| 20260906073649 | 72 | 61 | 1.0 | 3.0 | 0.00 | 0.00 | 0.00 | 92 | 1017.9 |
| 20260906073140 | 72 | 33 | 1.0 | 4.0 | 0.00 | 0.00 | 0.00 | 93 | 1018.1 |
| 20260906072635 | 72 | 341 | 1.0 | 3.0 | 0.00 | 0.00 | 0.00 | 92 | 1018.1 |
| 20260906072130 | 72 | 48 | 2.0 | 4.0 | 0.00 | 0.00 | 0.00 | 92 | 1017.9 |
| 20260906071626 | 72 | 46 | 2.0 | 3.0 | 0.00 | 0.00 | 0.00 | 92 | 1018.1 |
| 20260906071121 | 72 | 29 | 1.0 | 4.0 | 0.00 | 0.00 | 0.00 | 92 | 1018.5 |
| 20260906070618 | 72 | 78 | 0.0 | 3.0 | 0.00 | 0.00 | 0.00 | 92 | 1018.1 |
| 20260906070113 | 73 | 73 | 0.0 | 5.0 | 0.00 | 0.00 | 0.00 | 92 | 1018.3 |
| 20260906065613 | 73 | 35 | 1.0 | 4.0 | 0.00 | 0.00 | 0.00 | 92 | 1018.2 |
| 20260906065108 | 73 | 52 | 1.0 | 4.0 | 0.00 | 0.00 | 0.00 | 92 | 1018.1 |
| 20260906064604 | 73 | 108 | 0.0 | 3.0 | 0.00 | 0.00 | 0.00 | 91 | 1018.0 |
| 20260906064058 | 73 | 359 | 2.0 | 3.0 | 0.00 | 0.00 | 0.00 | 91 | 1017.9 |
| 20260906063554 | 73 | 12 | 1.0 | 6.0 | 0.00 | 0.00 | 0.00 | 91 | 1017.9 |
| 20260906063049 | 73 | 66 | 2.0 | 6.0 | 0.00 | 0.00 | 0.00 | 91 | 1018.1 |
| 20260906062544 | 73 | 24 | 0.0 | 7.0 | 0.00 | 0.00 | 0.00 | 91 | 1017.9 |
| 20260906062038 | 73 | 96 | 5.0 | 6.0 | 0.00 | 0.00 | 0.00 | 90 | 1018.0 |
| 20260906061535 | 73 | 52 | 3.0 | 6.0 | 0.00 | 0.00 | 0.00 | 90 | 1018.2 |
| 20260906061034 | 73 | 92 | 3.0 | 6.0 | 0.00 | 0.00 | 0.00 | 90 | 1018.2 |
| 20260906060531 | 73 | 14 | 1.0 | 8.0 | 0.00 | 0.00 | 0.00 | 90 | 1018.0 |
| 20260906060028 | 73 | 83 | 2.0 | 6.0 | 0.00 | 0.00 | 0.00 | 90 | 1018.1 |
| 20260906055523 | 73 | 35 | 2.0 | 6.0 | 0.00 | 0.00 | 0.00 | 90 | 1017.8 |
| 20260906055019 | 73 | 78 | 5.0 | 6.0 | 0.00 | 0.00 | 0.00 | 90 | 1018.0 |
| 20260906054519 | 73 | 69 | 3.0 | 6.0 | 0.00 | 0.00 | 0.00 | 90 | 1017.9 |
| 20260906054014 | 73 | 0 | 3.0 | 8.0 | 0.00 | 0.00 | 0.00 | 91 | 1018.0 |
| 20260906053510 | 73 | 358 | 4.0 | 5.0 | 0.00 | 0.00 | 0.00 | 91 | 1017.7 |
| 20260906053006 | 73 | 29 | 2.0 | 5.0 | 0.00 | 0.00 | 0.00 | 90 | 1017.7 |
| 20260906052501 | 73 | 355 | 2.0 | 5.0 | 0.00 | 0.00 | 0.00 | 90 | 1018.0 |
| 20260906051958 | 73 | 336 | 1.0 | 6.0 | 0.00 | 0.00 | 0.00 | 90 | 1017.8 |
| 20260906051453 | 73 | 10 | 3.0 | 7.0 | 0.00 | 0.00 | 0.00 | 90 | 1017.7 |
| 20260906050949 | 73 | 30 | 2.0 | 8.0 | 0.00 | 0.00 | 0.00 | 90 | 1017.8 |
| 20260906050448 | 73 | 22 | 3.0 | 8.0 | 0.00 | 0.00 | 0.00 | 90 | 1017.9 |
| 20260906045948 | 73 | 357 | 2.0 | 10.0 | 0.00 | 0.00 | 0.00 | 90 | 1017.7 |
| 20260906045447 | 73 | 40 | 3.0 | 8.0 | 0.00 | 0.00 | 0.00 | 90 | 1017.5 |
| 20260906044943 | 73 | 51 | 3.0 | 7.0 | 0.00 | 0.00 | 0.00 | 90 | 1017.4 |
| 20260906044438 | 73 | 126 | 6.0 | 11.0 | 0.00 | 0.00 | 0.00 | 90 | 1017.0 |
| 20260906043933 | 73 | 20 | 5.0 | 8.0 | 0.00 | 0.00 | 0.00 | 90 | 1017.0 |
| 20260906043429 | 73 | 61 | 4.0 | 7.0 | 0.00 | 0.00 | 0.00 | 90 | 1017.0 |
| 20260906042925 | 73 | 70 | 6.0 | 10.0 | 0.00 | 0.00 | 0.00 | 90 | 1017.1 |
| 20260906042424 | 73 | 118 | 2.0 | 11.0 | 0.00 | 0.00 | 0.00 | 90 | 1017.0 |
| 20260906041919 | 73 | 45 | 9.0 | 11.0 | 0.00 | 0.00 | 0.00 | 89 | 1017.0 |
| 20260906041414 | 73 | 109 | 4.0 | 10.0 | 0.00 | 0.00 | 0.00 | 90 | 1017.0 |
| 20260906040908 | 73 | 39 | 6.0 | 10.0 | 0.00 | 0.00 | 0.00 | 89 | 1016.8 |
| 20260906040404 | 73 | 17 | 4.0 | 13.0 | 0.00 | 0.00 | 0.00 | 89 | 1017.0 |
| 20260906035859 | 73 | 67 | 2.0 | 8.0 | 0.00 | 0.00 | 0.00 | 89 | 1017.0 |
| 20260906035354 | 73 | 15 | 5.0 | 10.0 | 0.00 | 0.00 | 0.00 | 90 | 1017.0 |
| 20260906034849 | 73 | 29 | 4.0 | 9.0 | 0.00 | 0.00 | 0.00 | 90 | 1016.8 |
| 20260906034344 | 73 | 55 | 8.0 | 12.0 | 0.00 | 0.00 | 0.00 | 89 | 1017.0 |
| 20260906033840 | 73 | 67 | 5.0 | 14.0 | 0.00 | 0.00 | 0.00 | 89 | 1016.9 |
| 20260906033339 | 73 | 36 | 3.0 | 9.0 | 0.00 | 0.00 | 0.00 | 89 | 1016.7 |
| 20260906032836 | 73 | 61 | 2.0 | 7.0 | 0.00 | 0.00 | 0.00 | 89 | 1016.7 |
| 20260906032331 | 73 | 15 | 4.0 | 8.0 | 0.00 | 0.00 | 0.00 | 89 | 1016.9 |
| 20260906031826 | 73 | 15 | 2.0 | 6.0 | 0.00 | 0.00 | 0.00 | 89 | 1016.7 |
| 20260906031322 | 73 | 56 | 5.0 | 9.0 | 0.00 | 0.00 | 0.00 | 89 | 1016.7 |
| 20260906030821 | 73 | 89 | 5.0 | 8.0 | 0.00 | 0.00 | 0.00 | 89 | 1016.7 |
| 20260906030316 | 73 | 31 | 0.0 | 6.0 | 0.00 | 0.00 | 0.00 | 89 | 1016.8 |
| 20260906025811 | 73 | 46 | 3.0 | 10.0 | 0.00 | 0.00 | 0.00 | 89 | 1016.7 |
| 20260906025306 | 73 | 112 | 3.0 | 7.0 | 0.00 | 0.00 | 0.00 | 89 | 1016.7 |
| 20260906024804 | 73 | 13 | 3.0 | 3.0 | 0.00 | 0.00 | 0.00 | 89 | 1016.8 |
| 20260906024303 | 73 | 14 | 2.0 | 11.0 | 0.00 | 0.00 | 0.00 | 90 | 1016.9 |
| 20260906023759 | 73 | 34 | 2.0 | 11.0 | 0.00 | 0.00 | 0.00 | 90 | 1016.6 |
| 20260906023254 | 73 | 47 | 6.0 | 7.0 | 0.00 | 0.00 | 0.00 | 90 | 1016.9 |
| 20260906022750 | 73 | 351 | 4.0 | 7.0 | 0.00 | 0.00 | 0.00 | 90 | 1016.6 |
| 20260906022245 | 73 | 30 | 5.0 | 11.0 | 0.00 | 0.00 | 0.00 | 89 | 1016.6 |
| 20260906021741 | 73 | 44 | 6.0 | 12.0 | 0.00 | 0.00 | 0.00 | 89 | 1016.8 |
| 20260906021240 | 73 | 28 | 2.0 | 9.0 | 0.00 | 0.00 | 0.00 | 89 | 1016.7 |
| 20260906020734 | 73 | 69 | 3.0 | 10.0 | 0.00 | 0.00 | 0.00 | 90 | 1016.9 |
| 20260906020224 | 73 | 0 | 2.0 | 9.0 | 0.00 | 0.00 | 0.00 | 90 | 1016.8 |
| 20260906015724 | 73 | 23 | 4.0 | 12.0 | 0.00 | 0.00 | 0.00 | 90 | 1016.7 |
| 20260906015222 | 73 | 103 | 4.0 | 9.0 | 0.00 | 0.00 | 0.00 | 90 | 1017.1 |
| 20260906014716 | 73 | 338 | 3.0 | 7.0 | 0.00 | 0.00 | 0.00 | 90 | 1016.9 |
| 20260906014213 | 73 | 16 | 3.0 | 10.0 | 0.00 | 0.00 | 0.00 | 90 | 1016.9 |
| 20260906013709 | 73 | 315 | 3.0 | 14.0 | 0.00 | 0.00 | 0.00 | 90 | 1017.0 |
| 20260906013208 | 73 | 350 | 6.0 | 8.0 | 0.00 | 0.00 | 0.00 | 90 | 1017.0 |
| 20260906012703 | 73 | 13 | 3.0 | 12.0 | 0.00 | 0.00 | 0.00 | 90 | 1016.6 |
| 20260906012158 | 73 | 28 | 4.0 | 9.0 | 0.00 | 0.00 | 0.00 | 90 | 1016.7 |
| 20260906011654 | 73 | 30 | 11.0 | 12.0 | 0.00 | 0.00 | 0.00 | 89 | 1016.7 |
| 20260906011148 | 73 | 321 | 6.0 | 9.0 | 0.00 | 0.00 | 0.00 | 89 | 1016.8 |
| 20260906010644 | 73 | 342 | 2.0 | 5.0 | 0.00 | 0.00 | 0.00 | 89 | 1016.6 |
| 20260906010140 | 73 | 3 | 4.0 | 10.0 | 0.00 | 0.00 | 0.00 | 89 | 1016.7 |
| 20260906005639 | 73 | 316 | 5.0 | 10.0 | 0.00 | 0.00 | 0.00 | 88 | 1016.8 |
| 20260906005138 | 73 | 332 | 9.0 | 11.0 | 0.00 | 0.00 | 0.00 | 88 | 1016.7 |
| 20260906004638 | 73 | 10 | 4.0 | 12.0 | 0.00 | 0.00 | 0.00 | 88 | 1016.3 |
| 20260906004133 | 73 | 337 | 4.0 | 12.0 | 0.00 | 0.00 | 0.00 | 88 | 1016.4 |
| 20260906003628 | 73 | 25 | 3.0 | 13.0 | 0.00 | 0.00 | 0.00 | 88 | 1016.3 |
| 20260906003124 | 73 | 7 | 9.0 | 11.0 | 0.00 | 0.00 | 0.00 | 88 | 1016.3 |
| 20260906002619 | 73 | 357 | 4.0 | 14.0 | 0.00 | 0.00 | 0.00 | 88 | 1016.1 |
| 20260906002113 | 73 | 355 | 11.0 | 16.0 | 0.00 | 0.00 | 0.00 | 88 | 1016.2 |
| 20260906001608 | 74 | 22 | 7.0 | 13.0 | 0.00 | 0.00 | 0.00 | 87 | 1016.1 |
| 20260906001103 | 74 | 14 | 5.0 | 9.0 | 0.00 | 0.00 | 0.00 | 87 | 1016.1 |
| 20260906000559 | 75 | 36 | 8.0 | 13.0 | 0.00 | 0.00 | 0.00 | 87 | 1016.3 |
| 20260906000054 | 75 | 2 | 6.0 | 13.0 | 0.00 | 0.00 | 0.00 | 87 | 1016.2 |
| 20260905235553 | 75 | 16 | 6.0 | 15.0 | 0.00 | 0.00 | 0.00 | 86 | 1016.2 |
| 20260905235048 | 76 | 8 | 6.0 | 11.0 | 0.00 | 0.00 | 0.00 | 85 | 1016.3 |
| 20260905234544 | 76 | 10 | 3.0 | 14.0 | 0.00 | 0.00 | 0.00 | 85 | 1015.9 |
| 20260905234039 | 76 | 346 | 6.0 | 12.0 | 0.00 | 0.00 | 0.00 | 85 | 1016.2 |
| 20260905233538 | 76 | 340 | 4.0 | 11.0 | 0.00 | 0.00 | 0.00 | 85 | 1015.9 |
| 20260905233038 | 76 | 22 | 7.0 | 11.0 | 0.00 | 0.00 | 0.00 | 84 | 1016.0 |
| 20260905232534 | 77 | 13 | 6.0 | 13.0 | 0.00 | 0.00 | 0.00 | 84 | 1015.8 |
| 20260905232029 | 77 | 349 | 4.0 | 16.0 | 0.00 | 0.00 | 0.00 | 83 | 1015.6 |
| 20260905231524 | 78 | 8 | 9.0 | 13.0 | 0.00 | 0.00 | 0.00 | 82 | 1015.8 |
| 20260905231021 | 78 | 13 | 5.0 | 11.0 | 0.00 | 0.00 | 0.00 | 82 | 1015.5 |
| 20260905230520 | 78 | 17 | 4.0 | 11.0 | 0.00 | 0.00 | 0.00 | 81 | 1015.5 |
| 20260905230018 | 79 | 42 | 11.0 | 13.0 | 0.00 | 0.00 | 0.00 | 80 | 1015.3 |
| 20260905225513 | 80 | 19 | 7.0 | 14.0 | 0.00 | 0.00 | 0.00 | 78 | 1015.3 |
| 20260905225009 | 80 | 32 | 10.0 | 10.0 | 0.00 | 0.00 | 0.00 | 77 | 1015.3 |
| 20260905224504 | 80 | 353 | 7.0 | 19.0 | 0.00 | 0.00 | 0.00 | 76 | 1015.4 |
| 20260905224003 | 80 | 357 | 3.0 | 13.0 | 0.00 | 0.00 | 0.00 | 77 | 1015.4 |
| 20260905223501 | 81 | 3 | 7.0 | 9.0 | 0.00 | 0.00 | 0.00 | 76 | 1015.5 |
| 20260905222956 | 80 | 16 | 6.0 | 14.0 | 0.00 | 0.00 | 0.00 | 76 | 1015.3 |
| 20260905222456 | 81 | 6 | 3.0 | 11.0 | 0.00 | 0.00 | 0.00 | 76 | 1015.4 |
| 20260905221951 | 81 | 47 | 4.0 | 12.0 | 0.00 | 0.00 | 0.00 | 76 | 1015.4 |
| 20260905221447 | 82 | 335 | 4.0 | 12.0 | 0.00 | 0.00 | 0.00 | 74 | 1015.5 |
| 20260905220943 | 81 | 324 | 3.0 | 15.0 | 0.00 | 0.00 | 0.00 | 75 | 1015.2 |
| 20260905220439 | 80 | 352 | 4.0 | 9.0 | 0.00 | 0.00 | 0.00 | 77 | 1015.5 |
| 20260905215938 | 81 | 359 | 3.0 | 11.0 | 0.00 | 0.00 | 0.00 | 76 | 1015.4 |
| 20260905215434 | 80 | 20 | 4.0 | 13.0 | 0.00 | 0.00 | 0.00 | 77 | 1015.6 |
| 20260905214930 | 80 | 358 | 11.0 | 15.0 | 0.00 | 0.00 | 0.00 | 77 | 1015.4 |
| 20260905214426 | 80 | 357 | 4.0 | 11.0 | 0.00 | 0.00 | 0.00 | 77 | 1015.4 |
| 20260905213926 | 80 | 16 | 7.0 | 12.0 | 0.00 | 0.00 | 0.00 | 77 | 1015.7 |
| 20260905213422 | 80 | 27 | 7.0 | 9.0 | 0.00 | 0.00 | 0.00 | 79 | 1015.6 |
| 20260905212917 | 80 | 334 | 4.0 | 11.0 | 0.00 | 0.00 | 0.00 | 79 | 1015.6 |
| 20260905212412 | 80 | 0 | 4.0 | 9.0 | 0.00 | 0.00 | 0.00 | 78 | 1015.4 |
| 20260905211911 | 80 | 321 | 4.0 | 9.0 | 0.00 | 0.00 | 0.00 | 79 | 1015.4 |
| 20260905211407 | 80 | 338 | 3.0 | 9.0 | 0.00 | 0.00 | 0.00 | 79 | 1015.3 |
| 20260905210903 | 80 | 343 | 4.0 | 12.0 | 0.00 | 0.00 | 0.00 | 78 | 1015.6 |
| 20260905210357 | 80 | 337 | 5.0 | 13.0 | 0.00 | 0.00 | 0.00 | 78 | 1015.4 |
| 20260905205856 | 81 | 333 | 7.0 | 14.0 | 0.00 | 0.00 | 0.00 | 78 | 1015.3 |
| 20260905205351 | 82 | 355 | 2.0 | 10.0 | 0.00 | 0.00 | 0.00 | 77 | 1015.4 |
| 20260905204850 | 81 | 333 | 5.0 | 10.0 | 0.00 | 0.00 | 0.00 | 77 | 1015.5 |
| 20260905204347 | 83 | 15 | 6.0 | 10.0 | 0.00 | 0.00 | 0.00 | 74 | 1015.5 |
| 20260905203845 | 82 | 301 | 3.0 | 13.0 | 0.00 | 0.00 | 0.00 | 76 | 1015.5 |
| 20260905203341 | 82 | 333 | 9.0 | 10.0 | 0.00 | 0.00 | 0.00 | 76 | 1015.5 |
| 20260905202837 | 82 | 346 | 3.0 | 13.0 | 0.00 | 0.00 | 0.00 | 77 | 1015.5 |
| 20260905202331 | 83 | 11 | 5.0 | 10.0 | 0.00 | 0.00 | 0.00 | 74 | 1015.4 |
| 20260905201827 | 82 | 352 | 6.0 | 12.0 | 0.00 | 0.00 | 0.00 | 76 | 1015.5 |
| 20260905201322 | 83 | 6 | 2.0 | 15.0 | 0.00 | 0.00 | 0.00 | 76 | 1015.6 |
| 20260905200816 | 84 | 321 | 3.0 | 8.0 | 0.00 | 0.00 | 0.00 | 74 | 1015.4 |
| 20260905200312 | 83 | 342 | 5.0 | 12.0 | 0.00 | 0.00 | 0.00 | 76 | 1015.3 |
| 20260905195810 | 82 | 25 | 8.0 | 11.0 | 0.00 | 0.00 | 0.00 | 77 | 1015.3 |
| 20260905195307 | 82 | 19 | 5.0 | 14.0 | 0.00 | 0.00 | 0.00 | 79 | 1015.4 |
| 20260905194801 | 81 | 31 | 10.0 | 15.0 | 0.00 | 0.00 | 0.00 | 79 | 1015.4 |
| 20260905194255 | 83 | 349 | 5.0 | 9.0 | 0.00 | 0.00 | 0.00 | 77 | 1015.6 |
| 20260905193754 | 82 | 331 | 6.0 | 13.0 | 0.00 | 0.00 | 0.00 | 76 | 1015.5 |
| 20260905193249 | 84 | 16 | 3.0 | 11.0 | 0.00 | 0.00 | 0.00 | 76 | 1015.5 |
| 20260905192744 | 83 | 8 | 5.0 | 9.0 | 0.00 | 0.00 | 0.00 | 76 | 1015.6 |
| 20260905192241 | 83 | 12 | 6.0 | 13.0 | 0.00 | 0.00 | 0.00 | 75 | 1015.6 |
| 20260905191740 | 85 | 332 | 5.0 | 10.0 | 0.00 | 0.00 | 0.00 | 72 | 1015.6 |
| 20260905191239 | 84 | 349 | 5.0 | 12.0 | 0.00 | 0.00 | 0.00 | 74 | 1015.6 |
| 20260905190737 | 85 | 351 | 4.0 | 10.0 | 0.00 | 0.00 | 0.00 | 75 | 1015.5 |
| 20260905190237 | 83 | 7 | 5.0 | 13.0 | 0.00 | 0.00 | 0.00 | 76 | 1015.5 |
| 20260905185736 | 82 | 350 | 5.0 | 11.0 | 0.00 | 0.00 | 0.00 | 77 | 1015.6 |
| 20260905185231 | 83 | 345 | 2.0 | 12.0 | 0.00 | 0.00 | 0.00 | 77 | 1015.4 |
| 20260905184725 | 84 | 5 | 4.0 | 11.0 | 0.00 | 0.00 | 0.00 | 75 | 1015.5 |
| 20260905184224 | 86 | 16 | 4.0 | 7.0 | 0.00 | 0.00 | 0.00 | 73 | 1015.7 |
| 20260905183723 | 85 | 20 | 11.0 | 11.0 | 0.00 | 0.00 | 0.00 | 73 | 1015.6 |
| 20260905183219 | 84 | 348 | 6.0 | 11.0 | 0.00 | 0.00 | 0.00 | 75 | 1015.7 |
| 20260905182713 | 84 | 3 | 8.0 | 11.0 | 0.00 | 0.00 | 0.00 | 74 | 1015.5 |
| 20260905182213 | 84 | 79 | 5.0 | 11.0 | 0.00 | 0.00 | 0.00 | 75 | 1015.7 |
| 20260905181708 | 84 | 329 | 3.0 | 11.0 | 0.00 | 0.00 | 0.00 | 75 | 1015.6 |
| 20260905181207 | 84 | 336 | 4.0 | 11.0 | 0.00 | 0.00 | 0.00 | 75 | 1015.5 |
| 20260905180702 | 85 | 104 | 4.0 | 9.0 | 0.00 | 0.00 | 0.00 | 73 | 1015.5 |
| 20260905180157 | 85 | 18 | 5.0 | 11.0 | 0.00 | 0.00 | 0.00 | 73 | 1015.5 |
| 20260905175656 | 85 | 12 | 4.0 | 10.0 | 0.00 | 0.00 | 0.00 | 73 | 1015.5 |
| 20260905175152 | 86 | 351 | 4.0 | 9.0 | 0.00 | 0.00 | 0.00 | 74 | 1015.4 |
| 20260905174647 | 86 | 356 | 6.0 | 10.0 | 0.00 | 0.00 | 0.00 | 72 | 1015.5 |
| 20260905174143 | 85 | 63 | 3.0 | 10.0 | 0.00 | 0.00 | 0.00 | 75 | 1015.5 |
| 20260905173638 | 85 | 2 | 5.0 | 12.0 | 0.00 | 0.00 | 0.00 | 74 | 1015.6 |
| 20260905173134 | 85 | 357 | 5.0 | 9.0 | 0.00 | 0.00 | 0.00 | 73 | 1015.6 |
| 20260905172633 | 86 | 355 | 4.0 | 8.0 | 0.00 | 0.00 | 0.00 | 72 | 1015.5 |
| 20260905172128 | 86 | 25 | 3.0 | 10.0 | 0.00 | 0.00 | 0.00 | 72 | 1015.6 |
| 20260905171624 | 88 | 351 | 6.0 | 9.0 | 0.00 | 0.00 | 0.00 | 69 | 1015.5 |
| 20260905171120 | 87 | 23 | 4.0 | 11.0 | 0.00 | 0.00 | 0.00 | 70 | 1015.4 |
| 20260905170616 | 88 | 8 | 3.0 | 9.0 | 0.00 | 0.00 | 0.00 | 69 | 1015.5 |
| 20260905170111 | 88 | 356 | 3.0 | 8.0 | 0.00 | 0.00 | 0.00 | 68 | 1015.6 |
| 20260905165606 | 87 | 358 | 4.0 | 9.0 | 0.00 | 0.00 | 0.00 | 70 | 1015.6 |
| 20260905165101 | 85 | 12 | 11.0 | 11.0 | 0.00 | 0.00 | 0.00 | 73 | 1015.5 |
| 20260905164555 | 86 | 359 | 6.0 | 11.0 | 0.00 | 0.00 | 0.00 | 73 | 1015.7 |
| 20260905164050 | 86 | 357 | 3.0 | 10.0 | 0.00 | 0.00 | 0.00 | 72 | 1015.8 |
| 20260905163546 | 86 | 133 | 3.0 | 8.0 | 0.00 | 0.00 | 0.00 | 72 | 1015.8 |
| 20260905163042 | 86 | 0 | 3.0 | 6.0 | 0.00 | 0.00 | 0.00 | 73 | 1015.7 |
| 20260905162538 | 84 | 312 | 4.0 | 11.0 | 0.00 | 0.00 | 0.00 | 74 | 1015.5 |
| 20260905162037 | 85 | 333 | 5.0 | 12.0 | 0.00 | 0.00 | 0.00 | 73 | 1015.9 |
| 20260905161532 | 85 | 18 | 8.0 | 9.0 | 0.00 | 0.00 | 0.00 | 73 | 1015.8 |
| 20260905161030 | 84 | 358 | 2.0 | 10.0 | 0.00 | 0.00 | 0.00 | 74 | 1015.9 |
| 20260905160528 | 84 | 87 | 7.0 | 11.0 | 0.00 | 0.00 | 0.00 | 75 | 1015.8 |
| 20260905160029 | 85 | 73 | 4.0 | 8.0 | 0.00 | 0.00 | 0.00 | 74 | 1015.6 |
| 20260905155528 | 84 | 87 | 2.0 | 11.0 | 0.00 | 0.00 | 0.00 | 75 | 1015.4 |
| 20260905155027 | 85 | 82 | 3.0 | 6.0 | 0.00 | 0.00 | 0.00 | 75 | 1015.4 |
| 20260905154522 | 85 | 14 | 3.0 | 7.0 | 0.00 | 0.00 | 0.00 | 74 | 1015.6 |
| 20260905154018 | 84 | 342 | 5.0 | 10.0 | 0.00 | 0.00 | 0.00 | 76 | 1015.6 |
| 20260905153514 | 84 | 52 | 2.0 | 7.0 | 0.00 | 0.00 | 0.00 | 76 | 1015.6 |
| 20260905153014 | 84 | 354 | 4.0 | 10.0 | 0.00 | 0.00 | 0.00 | 77 | 1015.1 |
| 20260905152514 | 85 | 319 | 2.0 | 5.0 | 0.00 | 0.00 | 0.00 | 77 | 1015.4 |
| 20260905152009 | 83 | 70 | 3.0 | 10.0 | 0.00 | 0.00 | 0.00 | 80 | 1015.4 |
| 20260905151504 | 83 | 38 | 3.0 | 9.0 | 0.00 | 0.00 | 0.00 | 80 | 1015.5 |
| 20260905150959 | 83 | 39 | 4.0 | 7.0 | 0.00 | 0.00 | 0.00 | 82 | 1015.5 |
| 20260905150454 | 82 | 4 | 3.0 | 15.0 | 0.00 | 0.00 | 0.00 | 83 | 1015.2 |
| 20260905145950 | 82 | 335 | 4.0 | 8.0 | 0.00 | 0.00 | 0.00 | 83 | 1015.1 |
| 20260905145445 | 81 | 12 | 5.0 | 12.0 | 0.00 | 0.00 | 0.00 | 85 | 1015.3 |
| 20260905144944 | 81 | 345 | 6.0 | 10.0 | 0.00 | 0.00 | 0.00 | 85 | 1015.4 |
| 20260905144440 | 81 | 5 | 5.0 | 12.0 | 0.00 | 0.00 | 0.00 | 85 | 1015.2 |
| 20260905143939 | 81 | 106 | 3.0 | 12.0 | 0.00 | 0.00 | 0.00 | 85 | 1015.3 |
| 20260905143432 | 81 | 30 | 6.0 | 9.0 | 0.00 | 0.00 | 0.00 | 85 | 1015.2 |
| 20260905142927 | 81 | 3 | 3.0 | 11.0 | 0.00 | 0.00 | 0.00 | 85 | 1015.3 |
| 20260905142426 | 80 | 74 | 2.0 | 8.0 | 0.00 | 0.00 | 0.00 | 87 | 1015.2 |
| 20260905141922 | 79 | 299 | 3.0 | 11.0 | 0.00 | 0.00 | 0.00 | 88 | 1014.9 |
| 20260905141416 | 80 | 13 | 4.0 | 7.0 | 0.00 | 0.00 | 0.00 | 88 | 1014.9 |
| 20260905140913 | 79 | 341 | 2.0 | 8.0 | 0.00 | 0.00 | 0.00 | 90 | 1014.9 |
| 20260905140408 | 80 | 327 | 3.0 | 7.0 | 0.00 | 0.00 | 0.00 | 89 | 1014.7 |
| 20260905135906 | 80 | 13 | 5.0 | 8.0 | 0.00 | 0.00 | 0.00 | 88 | 1014.8 |
| 20260905135402 | 79 | 10 | 3.0 | 8.0 | 0.00 | 0.00 | 0.00 | 90 | 1014.8 |
| 20260905134857 | 80 | 349 | 3.0 | 5.0 | 0.00 | 0.00 | 0.00 | 88 | 1014.8 |
| 20260905134356 | 79 | 19 | 3.0 | 7.0 | 0.00 | 0.00 | 0.00 | 90 | 1015.0 |
| 20260905133850 | 79 | 287 | 2.0 | 4.0 | 0.00 | 0.00 | 0.00 | 91 | 1015.0 |
| 20260905133346 | 78 | 11 | 4.0 | 6.0 | 0.00 | 0.00 | 0.00 | 92 | 1015.2 |
| 20260905132845 | 78 | 333 | 2.0 | 6.0 | 0.00 | 0.00 | 0.00 | 92 | 1015.4 |
| 20260905132341 | 78 | 348 | 3.0 | 6.0 | 0.00 | 0.00 | 0.00 | 92 | 1015.1 |
| 20260905131840 | 78 | 18 | 3.0 | 7.0 | 0.00 | 0.00 | 0.00 | 92 | 1015.0 |
| 20260905131336 | 79 | 86 | 3.0 | 6.0 | 0.00 | 0.00 | 0.00 | 91 | 1014.7 |
| 20260905130831 | 79 | 181 | 2.0 | 5.0 | 0.00 | 0.00 | 0.00 | 90 | 1014.8 |
| 20260905130330 | 79 | 60 | 0.0 | 6.0 | 0.00 | 0.00 | 0.00 | 91 | 1014.7 |
| 20260905125825 | 79 | 9 | 3.0 | 8.0 | 0.00 | 0.00 | 0.00 | 91 | 1014.7 |
| 20260905125320 | 79 | 63 | 3.0 | 6.0 | 0.00 | 0.00 | 0.00 | 91 | 1014.5 |
| 20260905124816 | 78 | 5 | 2.0 | 7.0 | 0.00 | 0.00 | 0.00 | 91 | 1014.2 |
| 20260905124313 | 78 | 349 | 3.0 | 8.0 | 0.00 | 0.00 | 0.00 | 92 | 1014.2 |
| 20260905123807 | 78 | 44 | 5.0 | 10.0 | 0.00 | 0.00 | 0.00 | 93 | 1014.4 |
| 20260905123304 | 78 | 23 | 7.0 | 7.0 | 0.00 | 0.00 | 0.00 | 93 | 1014.1 |
| 20260905122804 | 78 | 342 | 7.0 | 9.0 | 0.00 | 0.00 | 0.00 | 94 | 1014.1 |
| 20260905122306 | 78 | 29 | 3.0 | 7.0 | 0.00 | 0.00 | 0.00 | 95 | 1014.2 |
| 20260905121759 | 78 | 10 | 2.0 | 4.0 | 0.00 | 0.00 | 0.00 | 96 | 1014.1 |
| 20260905121255 | 77 | 12 | 4.0 | 6.0 | 0.00 | 0.00 | 0.00 | 97 | 1014.0 |
| 20260905120753 | 77 | 4 | 3.0 | 5.0 | 0.00 | 0.00 | 0.00 | 98 | 1014.1 |
| 20260905120248 | 77 | 297 | 0.0 | 2.0 | 0.00 | 0.00 | 0.00 | 98 | 1013.9 |
| 20260905115743 | 76 | 328 | 0.0 | 2.0 | 0.00 | 0.00 | 0.00 | 98 | 1014.0 |
| 20260905115243 | 76 | 339 | 0.0 | 1.0 | 0.00 | 0.00 | 0.00 | 98 | 1013.9 |
| 20260905114742 | 76 | 154 | 0.0 | 0.0 | 0.00 | 0.00 | 0.00 | 98 | 1013.7 |
| 20260905114241 | 76 | 124 | 0.0 | 1.0 | 0.00 | 0.00 | 0.00 | 98 | 1013.6 |
| 20260905113740 | 76 | 89 | 0.0 | 0.0 | 0.00 | 0.00 | 0.00 | 98 | 1013.7 |
| 20260905113236 | 76 | 187 | 0.0 | 1.0 | 0.00 | 0.00 | 0.00 | 98 | 1013.4 |
| 20260905112731 | 76 | 218 | 0.0 | 2.0 | 0.00 | 0.00 | 0.00 | 97 | 1013.4 |
| 20260905112226 | 77 | 224 | 0.0 | 1.0 | 0.00 | 0.00 | 0.00 | 97 | 1013.4 |
| 20260905111721 | 77 | 315 | 0.0 | 2.0 | 0.00 | 0.00 | 0.00 | 97 | 1013.5 |
| 20260905111215 | 77 | 255 | 1.0 | 3.0 | 0.00 | 0.00 | 0.00 | 97 | 1013.7 |
| 20260905110714 | 77 | 326 | 0.0 | 2.0 | 0.00 | 0.00 | 0.00 | 97 | 1013.2 |
| 20260905110209 | 77 | 242 | 0.0 | 2.0 | 0.00 | 0.00 | 0.00 | 97 | 1013.3 |
| 20260905105705 | 77 | 297 | 0.0 | 2.0 | 0.00 | 0.00 | 0.00 | 97 | 1013.5 |
| 20260905105203 | 77 | 221 | 1.0 | 2.0 | 0.00 | 0.00 | 0.00 | 97 | 1013.4 |
| 20260905104658 | 77 | 253 | 0.0 | 3.0 | 0.00 | 0.00 | 0.00 | 97 | 1013.4 |
| 20260905104154 | 77 | 217 | 0.0 | 1.0 | 0.00 | 0.00 | 0.00 | 97 | 1013.4 |
| 20260905103649 | 77 | 142 | 0.0 | 1.0 | 0.00 | 0.00 | 0.00 | 96 | 1013.4 |
| 20260905103145 | 77 | 164 | 0.0 | 1.0 | 0.00 | 0.00 | 0.00 | 96 | 1013.6 |
| 20260905102641 | 77 | 117 | 0.0 | 0.0 | 0.00 | 0.00 | 0.00 | 96 | 1013.6 |
| 20260905102137 | 78 | 7 | 0.0 | 1.0 | 0.00 | 0.00 | 0.00 | 96 | 1013.5 |
| 20260905101636 | 78 | 15 | 0.0 | 0.0 | 0.00 | 0.00 | 0.00 | 96 | 1013.3 |
| 20260905101134 | 78 | 237 | 0.0 | 1.0 | 0.00 | 0.00 | 0.00 | 96 | 1013.6 |
| 20260905100630 | 78 | 205 | 0.0 | 2.0 | 0.00 | 0.00 | 0.00 | 96 | 1013.5 |
| 20260905100125 | 78 | 242 | 0.0 | 2.0 | 0.00 | 0.00 | 0.00 | 96 | 1013.4 |
| 20260905095625 | 77 | 218 | 0.0 | 1.0 | 0.00 | 0.00 | 0.00 | 96 | 1013.6 |
| 20260905095120 | 77 | 293 | 0.0 | 2.0 | 0.00 | 0.00 | 0.00 | 96 | 1013.4 |
| 20260905094615 | 77 | 224 | 0.0 | 2.0 | 0.00 | 0.00 | 0.00 | 96 | 1013.4 |
| 20260905094114 | 77 | 214 | 0.0 | 2.0 | 0.00 | 0.00 | 0.00 | 96 | 1013.5 |
| 20260905093614 | 77 | 252 | 1.0 | 2.0 | 0.00 | 0.00 | 0.00 | 96 | 1013.6 |
| 20260905093111 | 77 | 187 | 0.0 | 1.0 | 0.00 | 0.00 | 0.00 | 96 | 1013.8 |
| 20260905092610 | 78 | 246 | 0.0 | 2.0 | 0.00 | 0.00 | 0.00 | 96 | 1013.6 |
| 20260905092107 | 77 | 296 | 1.0 | 3.0 | 0.00 | 0.00 | 0.00 | 96 | 1013.5 |
| 20260905091606 | 77 | 199 | 0.0 | 2.0 | 0.00 | 0.00 | 0.00 | 96 | 1013.5 |
| 20260905091101 | 77 | 192 | 1.0 | 2.0 | 0.00 | 0.00 | 0.00 | 96 | 1013.3 |
| 20260905090601 | 78 | 224 | 0.0 | 2.0 | 0.00 | 0.00 | 0.00 | 96 | 1013.3 |
| 20260905090056 | 78 | 322 | 0.0 | 1.0 | 0.00 | 0.00 | 0.00 | 95 | 1013.5 |
| 20260905085554 | 78 | 218 | 0.0 | 1.0 | 0.00 | 0.00 | 0.00 | 95 | 1013.3 |